Location: Waco, TX
(31.5480°N, 97.1670°W)
Time: 00:40:52
(UTC-06:00)

ISS - Pass Details

Date: 02 February 2021
Orbit: 417 x 422 km, 51.6° (Epoch: 08 March)

Event Time Altitude Azimuth Distance (km) Brightness Sun altitude
Rises 12:21:19 0° 215° (SW) 2,345 0.6 41.6°
Reaches altitude 10° 12:23:25 10° 211° (SSW) 1,486 -0.2 41.7°
Maximum altitude 12:26:41 57° 133° (SE) 497 -2.2 41.7°
Drops below altitude 10° 12:30:00 10° 53° (NE) 1,497 -1.1 41.8°
Sets 12:32:07 0° 49° (NE) 2,365 -0.2 41.8°
